• In France
  • List of Countries
  • For 7 days
  • Water Temperature
  • Satellite Maps
  • Weather Map
  • Weather Widgets
  • user-avatar
    Login

    Hourly Weather Gomel

    Today, 23 September, Sunday

    Time Temperature Precipitation Wind Pressure Humidity
    00:00 +8°C° 0.6 mm 4 mps 750 mmHg 90%
    01:00 +8°C° 0.6 mm 4 mps 750 mmHg 91%
    02:00 +9°C° 0 mm 3 mps 750 mmHg 91%
    03:00 +9°C° 0 mm 3 mps 750 mmHg 92%
    04:00 +8°C° 0 mm 3 mps 750 mmHg 93%
    05:00 +7°C° 0 mm 4 mps 750 mmHg 94%
    06:00 +7°C° 0 mm 4 mps 750 mmHg 93%
    07:00 +8°C° 0 mm 4 mps 750 mmHg 91%
    08:00 +8°C° 0 mm 4 mps 750 mmHg 89%
    09:00 +10°C° 0 mm 4 mps 750 mmHg 84%
    10:00 +11°C° 0 mm 4 mps 750 mmHg 79%
    11:00 +12°C° 0 mm 4 mps 750 mmHg 74%
    12:00 +13°C° 0 mm 4 mps 750 mmHg 67%
    13:00 +15°C° 0 mm 4 mps 749 mmHg 60%
    14:00 +17°C° 0 mm 4 mps 749 mmHg 54%
    15:00 +15°C° 0.1 mm 4 mps 749 mmHg 57%
    16:00 +16°C° 0.1 mm 3 mps 749 mmHg 60%
    17:00 +14°C° 0.1 mm 3 mps 749 mmHg 64%
    18:00 +13°C° 0 mm 3 mps 749 mmHg 66%
    19:00 +12°C° 0 mm 3 mps 749 mmHg 69%
    20:00 +10°C° 0 mm 3 mps 749 mmHg 72%
    21:00 +11°C° 0 mm 3 mps 749 mmHg 71%
    22:00 +11°C° 0 mm 3 mps 748 mmHg 70%
    23:00 +11°C° 0 mm 3 mps 748 mmHg 69%

    Tomorrow, 24 September, Monday

    Time Temperature Precipitation Wind Pressure Humidity
    00:00 +11°C° 0 mm 3 mps 747 mmHg 71%
    01:00 +11°C° 0 mm 3 mps 747 mmHg 73%
    02:00 +11°C° 0 mm 3 mps 746 mmHg 74%
    03:00 +10°C° 0.9 mm 4 mps 745 mmHg 78%
    04:00 +10°C° 0.9 mm 4 mps 745 mmHg 82%
    05:00 +10°C° 0.9 mm 4 mps 744 mmHg 86%
    06:00 +9°C° 1.5 mm 6 mps 743 mmHg 87%
    07:00 +9°C° 1.5 mm 7 mps 742 mmHg 87%
    08:00 +9°C° 1.5 mm 8 mps 741 mmHg 87%
    09:00 +10°C° 1 mm 8 mps 740 mmHg 88%
    10:00 +10°C° 1 mm 8 mps 739 mmHg 88%
    11:00 +10°C° 1 mm 8 mps 737 mmHg 89%
    12:00 +11°C° 1 mm 8 mps 737 mmHg 88%
    13:00 +12°C° 1 mm 8 mps 736 mmHg 87%
    14:00 +13°C° 1 mm 8 mps 736 mmHg 85%
    15:00 +12°C° 0.1 mm 9 mps 736 mmHg 84%
    16:00 +10°C° 0.1 mm 9 mps 737 mmHg 82%
    17:00 +8°C° 0.1 mm 10 mps 737 mmHg 81%
    18:00 +8°C° 0 mm 9 mps 738 mmHg 79%
    19:00 +8°C° 0 mm 9 mps 739 mmHg 78%
    20:00 +8°C° 0 mm 9 mps 740 mmHg 76%
    21:00 +7°C° 0 mm 8 mps 741 mmHg 77%
    22:00 +8°C° 0 mm 7 mps 741 mmHg 79%
    23:00 +8°C° 0 mm 7 mps 742 mmHg 80%

    Day after tomorrow, 25 September, Tuesday

    Time Temperature Precipitation Wind Pressure Humidity
    00:00 +7°C° 0 mm 6 mps 742 mmHg 82%
    01:00 +7°C° 0 mm 6 mps 743 mmHg 85%
    02:00 +7°C° 0 mm 5 mps 744 mmHg 87%
    03:00 +7°C° 0 mm 6 mps 744 mmHg 84%
    04:00 +7°C° 0 mm 6 mps 745 mmHg 81%
    05:00 +7°C° 0 mm 6 mps 745 mmHg 78%
    06:00 +5°C° 0 mm 6 mps 746 mmHg 77%
    07:00 +5°C° 0 mm 7 mps 747 mmHg 76%
    08:00 +5°C° 0 mm 7 mps 748 mmHg 74%
    09:00 +6°C° 0 mm 7 mps 748 mmHg 69%
    10:00 +8°C° 0 mm 7 mps 749 mmHg 64%
    11:00 +9°C° 0 mm 7 mps 750 mmHg 59%
    12:00 +9°C° 0.1 mm 7 mps 750 mmHg 57%
    13:00 +9°C° 0.1 mm 7 mps 750 mmHg 54%
    14:00 +9°C° 0.1 mm 7 mps 751 mmHg 51%
    15:00 +9°C° 0.1 mm 6 mps 751 mmHg 53%
    16:00 +8°C° 0.1 mm 5 mps 751 mmHg 55%
    17:00 +8°C° 0.1 mm 4 mps 752 mmHg 57%
    18:00 +7°C° 0 mm 4 mps 753 mmHg 61%
    19:00 +6°C° 0 mm 4 mps 753 mmHg 65%
    20:00 +5°C° 0 mm 4 mps 754 mmHg 69%
    21:00 +5°C° 0 mm 4 mps 755 mmHg 70%
    22:00 +4°C° 0 mm 4 mps 755 mmHg 72%
    23:00 +4°C° 0 mm 4 mps 756 mmHg 73%

    26 September, Wednesday

    Time Temperature Precipitation Wind Pressure Humidity
    00:00 +3°C° 0 mm 4 mps 756 mmHg 73%
    01:00 +3°C° 0 mm 4 mps 757 mmHg 73%
    02:00 +3°C° 0 mm 4 mps 757 mmHg 73%
    03:00 +1°C° 0 mm 4 mps 758 mmHg 73%
    04:00 +1°C° 0 mm 4 mps 758 mmHg 73%
    05:00 +1°C° 0 mm 4 mps 759 mmHg 72%
    06:00 +3°C° 0 mm 4 mps 759 mmHg 70%
    07:00 +3°C° 0 mm 4 mps 760 mmHg 69%
    08:00 +3°C° 0 mm 5 mps 760 mmHg 67%
    09:00 +6°C° 0 mm 5 mps 760 mmHg 62%
    10:00 +8°C° 0 mm 5 mps 760 mmHg 58%
    11:00 +9°C° 0 mm 5 mps 760 mmHg 54%
    12:00 +10°C° 0 mm 5 mps 760 mmHg 51%
    13:00 +10°C° 0 mm 5 mps 760 mmHg 48%
    14:00 +12°C° 0 mm 5 mps 760 mmHg 45%
    15:00 +11°C° 0 mm 4 mps 759 mmHg 48%
    16:00 +10°C° 0 mm 3 mps 759 mmHg 51%
    17:00 +10°C° 0 mm 3 mps 759 mmHg 55%
    18:00 +9°C° 0 mm 3 mps 759 mmHg 56%
    19:00 +8°C° 0 mm 3 mps 759 mmHg 57%
    20:00 +7°C° 0 mm 4 mps 758 mmHg 58%
    21:00 +7°C° 0 mm 4 mps 758 mmHg 58%
    22:00 +7°C° 0 mm 5 mps 757 mmHg 58%
    23:00 +7°C° 0 mm 5 mps 757 mmHg 57%

    27 September, Thursday

    Time Temperature Precipitation Wind Pressure Humidity
    00:00 +7°C° 0.1 mm 6 mps 756 mmHg 60%
    01:00 +7°C° 0.1 mm 6 mps 755 mmHg 64%
    02:00 +7°C° 0.1 mm 6 mps 755 mmHg 67%
    03:00 +6°C° 0.1 mm 7 mps 754 mmHg 69%
    04:00 +6°C° 0.1 mm 7 mps 753 mmHg 71%
    05:00 +6°C° 0.1 mm 7 mps 753 mmHg 73%
    06:00 +6°C° 0.1 mm 7 mps 752 mmHg 74%
    07:00 +6°C° 0.1 mm 8 mps 752 mmHg 75%
    08:00 +6°C° 0.1 mm 8 mps 751 mmHg 76%
    09:00 +7°C° 0.2 mm 8 mps 751 mmHg 78%
    10:00 +8°C° 0.2 mm 7 mps 751 mmHg 79%
    11:00 +9°C° 0.2 mm 7 mps 751 mmHg 81%
    12:00 +9°C° 0.1 mm 7 mps 751 mmHg 82%
    13:00 +10°C° 0.1 mm 7 mps 751 mmHg 82%
    14:00 +10°C° 0.1 mm 7 mps 751 mmHg 83%
    15:00 +10°C° 0 mm 6 mps 751 mmHg 84%
    16:00 +10°C° 0 mm 6 mps 751 mmHg 84%
    17:00 +12°C° 0 mm 5 mps 751 mmHg 85%
    18:00 +12°C° 0 mm 5 mps 751 mmHg 86%
    19:00 +12°C° 0 mm 5 mps 751 mmHg 87%
    20:00 +12°C° 0 mm 5 mps 751 mmHg 88%
    21:00 +12°C° 0 mm 5 mps 751 mmHg 89%
    22:00 +12°C° 0 mm 5 mps 751 mmHg 90%
    23:00 +12°C° 0 mm 5 mps 751 mmHg 91%

    28 September, Friday

    Time Temperature Precipitation Wind Pressure Humidity
    00:00 +12°C° 0 mm 5 mps 751 mmHg 91%
    01:00 +12°C° 0 mm 5 mps 751 mmHg 91%
    02:00 +12°C° 0 mm 5 mps 751 mmHg 91%
    03:00 +12°C° 0 mm 5 mps 751 mmHg 91%
    04:00 +12°C° 0 mm 5 mps 750 mmHg 92%
    05:00 +13°C° 0 mm 5 mps 750 mmHg 92%
    06:00 +13°C° 0 mm 5 mps 750 mmHg 90%
    07:00 +13°C° 0 mm 6 mps 750 mmHg 89%
    08:00 +13°C° 0 mm 6 mps 750 mmHg 88%
    09:00 +14°C° 0 mm 6 mps 750 mmHg 85%
    10:00 +15°C° 0 mm 6 mps 749 mmHg 82%
    11:00 +16°C° 0 mm 6 mps 749 mmHg 78%
    12:00 +17°C° 0 mm 6 mps 749 mmHg 74%
    13:00 +18°C° 0 mm 7 mps 748 mmHg 70%
    14:00 +20°C° 0 mm 7 mps 748 mmHg 67%
    15:00 +19°C° 0.1 mm 6 mps 748 mmHg 69%
    16:00 +17°C° 0.1 mm 5 mps 748 mmHg 72%
    17:00 +16°C° 0.1 mm 5 mps 749 mmHg 75%
    18:00 +15°C° 0 mm 4 mps 749 mmHg 79%
    19:00 +14°C° 0 mm 3 mps 750 mmHg 84%
    20:00 +12°C° 0 mm 3 mps 750 mmHg 88%
    21:00 +12°C° 0 mm 2 mps 751 mmHg 90%
    22:00 +12°C° 0 mm 2 mps 751 mmHg 91%
    23:00 +10°C° 0 mm 2 mps 752 mmHg 93%
    Show more